Location: Carlisle
(34.5501°N, 84.5969°W)
Time: 03:44:13
(UTC+00:00)

N. Korean satellite - Visible Passes

Search period start: 07 December 2021 00:00
Search period end: 17 December 2021 00:00
Orbit: 446 x 495 km, 97.3° (Epoch: 06 December)

Date Brightness Start Highest point End Pass type
(mag) Time Alt. Az. Time Alt. Az. Time Alt. Az.
07 Dec 7.0 11:18:04 10° N 11:21:08 33° WNW 11:24:12 10° SW visible
08 Dec 6.3 10:49:17 10° NNE 10:52:41 86° ESE 10:56:04 10° S visible
08 Dec 9.5 22:53:30 10° SSW 22:56:14 21° W 22:58:56 10° NW visible
09 Dec 8.3 10:21:05 10° NE 10:24:06 30° E 10:27:07 10° SSE visible
09 Dec 8.4 11:55:59 10° NW 11:56:57 11° WNW 11:57:56 10° W visible
10 Dec 9.8 09:54:02 10° ENE 09:55:25 12° E 09:56:49 10° ESE visible
10 Dec 7.4 11:26:15 13° NNW 11:28:37 26° WNW 11:31:29 10° SW visible
11 Dec 6.2 10:58:05 22° N 11:00:10 72° WNW 11:03:33 10° SSW visible
11 Dec 9.7 23:01:28 10° SW 23:03:45 17° W 23:06:02 10° NW visible
12 Dec 7.8 10:29:43 20° NE 10:31:36 38° E 10:34:48 10° S visible
13 Dec 9.5 10:01:15 12° ENE 10:02:55 15° E 10:05:02 10° SE visible
13 Dec 7.7 11:35:21 20° NW 11:36:02 21° WNW 11:38:38 10° WSW visible
14 Dec 6.4 11:06:49 42° NNW 11:07:35 54° WNW 11:10:55 10° SSW visible
14 Dec 9.9 23:09:33 10° WSW 23:11:13 13° W 23:12:53 10° WNW visible
15 Dec 7.2 10:38:13 40° NE 10:39:01 51° E 10:42:21 10° S visible
16 Dec 9.1 10:09:36 18° ENE 10:10:21 20° E 10:12:55 10° SE visible
16 Dec 8.0 11:43:41 17° WNW 11:43:41 17° WNW 11:45:38 10° WSW visible
